Regional Weather Roundup
Issued by NWS

Home | Current Version | Previous Version | Graphics & Text | Print | Product List | Glossary On
Versions: 1 2 3 4 5 6 7 8 9 10 11 12 13 14 15 16 17 18 19 20 21 22 23 24 25 26 27 28 29 30 31 32 33 34 35 36 37 38 39 40 41 42 43 44 45 46 47 48 49 50
000
ASUS43 KLOT 301910
RWRIL

ILLINOIS REGIONAL WEATHER ROUNDUP
NATIONAL WEATHER SERVICE CHICAGO/ROMEOVILLE IL
200 PM CDT TUE SEP 30 2014

NOTE: "FAIR" INDICATES FEW OR NO CLOUDS BELOW 12,000 FEET WITH NO
SIGNIFICANT WEATHER AND/OR OBSTRUCTIONS TO VISIBILITY.

* THESE STATIONS ARE NOT UNDER NWS QUALITY CONTROL. THEY ALSO MAY NOT
  REPORT WEATHER SUCH AS PRECIPITATION OR FOG.

ILZ001-002-007-009-015-016-024-302000-
NORTHWEST ILLINOIS

CITY           SKY/WX    TMP DP  RH WIND       PRES   REMARKS
MOLINE         NOT AVBL
SAVANNA*       PTSUNNY   62  45  54 E7        30.02F
$$

ILZ003-004-008-010-011-017-018-302000-
NORTH CENTRAL ILLINOIS

CITY           SKY/WX    TMP DP  RH WIND       PRES   REMARKS
ROCKFORD       PTSUNNY   56  44  64 N8        30.06F
FREEPORT*      MOSUNNY   52  43  71 E5        30.06F
ROCHELLE*      MOSUNNY   60  43  54 NE3G9     30.03F
DE KALB*       MOSUNNY   56  45  65 E7        30.03F
PERU*          MOSUNNY   64  48  56 SE3       30.01F
$$

ILZ005-006-012>014-019>023-302000-
NORTHEAST ILLINOIS

CITY           SKY/WX    TMP DP  RH WIND       PRES   REMARKS
CHICAGO-OHARE  PTSUNNY   56  45  66 NE9       30.03F
CHICAGO-MIDWAY PTSUNNY   57  48  72 N10       30.02F
AURORA         MOSUNNY   59  46  62 NE7       30.03F
LANSING*       CLOUDY    58  48  67 N12       30.02F
JOLIET*        CLOUDY    57  47  70 NE9       30.02F
WAUKEGAN       NOT AVBL
DUPAGE AIRPORT CLOUDY    57  46  66 NE9       30.02F
KANKAKEE*      SUNNY     63  50  62 N9        30.00F
WHEELING       CLOUDY    56  46  69 NE12      30.04F
MORRIS*        MOSUNNY   60  49  66 NE5       30.01S
ROMEOVILLE*    CLOUDY    57  47  67 NE12      30.02F
NORTHERLY ISL    N/A     56  49  77 NW12        N/A
$$

LMZ740>746-302000-
SOUTHERN LAKE MICHIGAN

STATION/POSITION SKY/WX   TEMP    WIND        PRES    VSBY  WAVE
                          AIR SEA DIR/SP/G                  HT/PER
                          (F)     (DEG/KT/KT) (MB)    (MI)  (FT/S)
SOUTHERN BUOY              54 62   10/ 14/ 17 1016.9F         4/ 7
WAUKEGAN HARBOR            52      20/ 15/ 18   N/A
HARRISON CRIB              54     360/ 13/ 16   N/A
BURNHAM HARBOR             57      10/  9/ 15   N/A
CALUMET HARBOR             57     350/  9/ 14 1015.6F
MICHIGAN CITY              55     360/ 15/ 18   N/A
MICHIGAN CITY 6N           56 65   20/ 14/ 19   N/A           6/ 2
ST. JOSEPH                 54 62   20/ 10/ 16   N/A           4/ 2
$$

ILZ025>027-034>036-040-047-049-050-058-095>099-302000-
WEST-CENTRAL ILLINOIS

CITY           SKY/WX    TMP DP  RH WIND       PRES   REMARKS
QUINCY         MOSUNNY   68  60  75 E7        29.95F
GALESBURG*     PTSUNNY   65  54  68 E5        29.99F
MACOMB*        PTSUNNY   66  56  70 E3        29.99F
JACKSONVILLE*  PTSUNNY   72  60  66 NE3       29.96F
PITTSFIELD*    MOSUNNY   69  61  74 CALM      29.96F
$$

ILZ028>032-037-038-041>044-048-051>054-059>061-302000-
CENTRAL ILLINOIS

CITY           SKY/WX    TMP DP  RH WIND       PRES   REMARKS
PONTIAC        SUNNY     66  52  59 NE8       29.99F
BLOOMINGTON    SUNNY     70  55  58 NE8         N/A
DECATUR        CLOUDY    70  57  63 N5        29.97F
PEORIA         MOSUNNY   68  53  58 VRB7      29.98F
LACON*         CLOUDY    63  49  60 NE5       29.99F
LINCOLN*       MOSUNNY   72  55  55 CALM      29.94F
SPRINGFIELD    PTSUNNY   71  58  63 E6        29.96F
TAYLORVILLE    PTSUNNY   72  57  60 NE3       29.96F
$$

ILZ033-039-045-046-055>057-062-063-302000-
EAST-CENTRAL ILLINOIS

CITY           SKY/WX    TMP DP  RH WIND       PRES   REMARKS
DANVILLE*      MOSUNNY   67  53  59 N8        29.95S
RANTOUL*       SUNNY     69  51  52 N8        29.98F
MATTOON        MOSUNNY   73  56  54 NW5       29.95F
PARIS*         SUNNY     71  56  60 NE3       29.97F
$$

ILZ079-100>102-302000-
SOUTHWEST ILLINOIS

CITY           SKY/WX    TMP DP  RH WIND       PRES   REMARKS
BELLEVILLE     SUNNY     85  59  40 W3        29.91F HX  85
CAHOKIA*       SUNNY     86  53  32 NW3       29.91F HX  84
SPARTA*        MOSUNNY   84  55  36 CALM      29.93F HX  83
$$

ILZ064>066-069>071-074>076-080>082-084>086-088>090-092>094-302000-
SOUTH-CENTRAL ILLINOIS

CITY           SKY/WX    TMP DP  RH WIND       PRES   REMARKS
CARBONDALE     SUNNY     85  52  32 VRB5      29.91F HX  83
CAIRO*         SUNNY     87  53  31 CALM      29.91F HX  84
EFFINGHAM*     SUNNY     73  57  56 CALM      29.96F
MARION         MOSUNNY   86  55  35 W6        29.93F HX  84
CENTRALIA*     MOSUNNY   81  56  41 CALM      29.93F HX  81
SALEM*         MOSUNNY   82  62  50 N3        29.94F HX  82
METROPOLIS*    SUNNY     85  52  31 SW8       29.91F HX  83
$$

ILZ067-068-072-073-078-083-087-091-302000-
SOUTHEAST ILLINOIS

CITY           SKY/WX    TMP DP  RH WIND       PRES   REMARKS
LAWRENCEVILLE  SUNNY     77  62  59 N6        29.94F HAZE
FLORA*         SUNNY     78  59  51 N5        29.94F
FAIRFIELD*     SUNNY     82  61  47 CALM      29.92F HX  83
HARRISBURG*    MOSUNNY   84  56  38 NW6       29.93F HX  83
ROBINSON*      SUNNY     73  63  70 N3        29.95F
CARMI*         MOSUNNY   88  58  36 W5        29.91F HX  87
$$

ABBREVIATIONS USED IN REMARKS
   TC - TEMPERATURE IN CELSIUS
  WCI - WIND CHILL INDEX
   HX - HEAT INDEX
  VSB - VISIBILITY
$$



USA.gov is the U.S. government's official web portal to all federal, state and local government web resources and services.